FW4030 Weather Reports


Display with metric or nautical units.
time (UTC)temp
F
wind
direction
speed
MPH
gust
MPH
rain 1hr
in
rain 24hr
in
rain mn
in
humidity
%
barometer
mb
20240529052407 57 180 0.0 0.0 0.00 0.00 0.00 99 1016.8
20240529050507 57 180 0.0 0.0 0.00 0.00 0.00 98 1016.8
20240529045508 57 178 0.0 0.0 0.00 0.00 0.00 98 1016.7
20240529045407 57 180 0.0 0.0 0.00 0.00 0.00 99 1016.6
20240529044409 57 180 0.0 0.0 0.00 0.00 0.00 98 1016.7
20240529041408 57 180 0.0 0.0 0.00 0.00 0.00 98 1016.9
20240529041308 57 180 0.0 0.0 0.00 0.00 0.00 98 1016.9
20240529040407 57 180 0.0 0.0 0.00 0.00 0.00 98 1016.9
20240529035408 57 180 0.0 0.0 0.00 0.00 0.00 98 1017.0
20240529034704 57 180 0.0 0.0 0.00 0.00 0.00 98 1017.0
20240529034455 57 180 0.0 0.0 0.00 0.00 0.00 98 1017.1
20240529023743 57 180 0.0 0.0 0.00 0.00 0.00 98 1017.6
20240529020011 57 180 0.0 0.0 0.00 0.00 0.00 98 1018.0
20240529011753 56 180 0.0 0.0 0.00 0.01 0.00 98 1018.4
20240529010507 56 180 0.0 0.0 0.00 0.01 0.00 98 1018.8
20240529004532 56 180 0.0 0.0 0.00 0.01 0.00 97 1019.3
20240529003040 57 180 0.0 0.0 0.00 0.01 0.00 98 1019.4
20240528235305 58 180 0.0 0.0 0.00 0.01 0.00 97 1019.7
20240528235035 58 180 0.0 0.0 0.00 0.01 0.00 97 1019.7
20240528234817 58 180 0.0 0.0 0.00 0.01 0.00 97 1019.7
20240528232547 58 180 0.0 0.0 0.00 0.01 0.00 97 1019.9
20240528230909 58 180 0.0 0.0 0.00 0.01 0.00 97 1020.1
20240528225158 58 180 0.0 0.0 0.00 0.01 0.00 97 1020.0
20240528223408 57 180 0.0 0.0 0.00 0.01 0.00 97 1020.1
20240528221408 57 180 0.0 0.0 0.00 0.01 0.00 97 1020.4
20240528221307 57 180 0.0 0.0 0.00 0.01 0.00 97 1020.3
20240528220211 57 180 0.0 0.0 0.00 0.01 0.00 97 1020.4
20240528215021 58 180 0.0 0.0 0.00 0.01 0.01 97 1020.5
20240528214919 58 180 0.0 0.0 0.00 0.01 0.01 97 1020.5
20240528213820 58 180 0.0 0.0 0.00 0.01 0.01 97 1020.6
20240528212821 57 180 0.0 0.0 0.00 0.01 0.01 97 1020.7
20240528211919 57 180 0.0 0.0 0.00 0.01 0.01 97 1020.7
20240528211822 57 180 0.0 0.0 0.00 0.01 0.01 97 1020.7
20240528210819 57 180 0.0 0.0 0.00 0.01 0.01 97 1020.7
20240528205620 57 180 0.0 0.0 0.00 0.01 0.01 97 1020.8
20240528204522 57 180 0.0 0.0 0.00 0.01 0.01 97 1020.9
20240528203419 57 180 0.0 0.0 0.00 0.01 0.01 97 1020.9
20240528202419 57 180 0.0 0.0 0.00 0.01 0.01 97 1020.9
20240528201420 57 180 0.0 0.0 0.00 0.02 0.01 97 1020.9
20240528200420 57 180 0.0 0.0 0.00 0.02 0.01 97 1020.9
20240528195420 56 180 0.0 0.0 0.00 0.02 0.01 96 1020.8
20240528195320 56 180 0.0 0.0 0.00 0.02 0.01 96 1020.8
20240528194320 56 180 0.0 0.0 0.00 0.02 0.01 96 1020.9
20240528194219 56 180 0.0 0.0 0.00 0.02 0.01 96 1020.9
20240528193221 56 180 0.0 0.0 0.00 0.02 0.01 96 1020.9
20240528192319 57 180 0.0 0.0 0.00 0.02 0.01 95 1021.1
20240528192220 57 178 0.0 0.0 0.00 0.02 0.01 95 1021.1
20240528192021 57 180 0.0 0.0 0.00 0.02 0.01 95 1021.1
20240528191119 57 180 0.0 0.0 0.00 0.02 0.01 95 1021.0
20240528190119 57 180 0.0 0.0 0.00 0.02 0.01 95 1021.3
20240528185120 56 180 0.0 0.0 0.00 0.02 0.01 94 1021.1
20240528185019 56 180 0.0 0.0 0.00 0.02 0.01 94 1021.2
20240528183021 56 180 0.0 0.0 0.00 0.02 0.01 94 1021.3
20240528182120 56 180 0.0 0.0 0.00 0.02 0.01 94 1021.4
20240528181219 56 180 0.0 0.0 0.00 0.02 0.01 93 1021.5
20240528181122 56 180 0.0 0.0 0.00 0.02 0.01 93 1021.5
20240528180120 57 180 0.0 0.0 0.00 0.02 0.01 92 1021.7
20240528180021 57 180 0.0 0.0 0.00 0.02 0.01 92 1021.7
20240528175021 57 180 0.0 0.0 0.00 0.02 0.01 92 1021.7
20240528174119 57 180 0.0 0.0 0.00 0.02 0.01 92 1021.9
20240528173121 57 180 0.0 0.0 0.00 0.02 0.01 91 1022.0
20240528173023 57 180 0.0 0.0 0.00 0.02 0.01 91 1022.1
20240528172021 58 180 0.0 0.0 0.00 0.03 0.01 91 1022.2
20240528171920 58 180 0.0 0.0 0.00 0.03 0.01 91 1022.2
20240528171018 58 180 0.0 0.0 0.00 0.03 0.01 91 1022.3
20240528170821 58 180 0.0 0.0 0.00 0.03 0.01 91 1022.3
20240528164019 57 180 0.0 0.0 0.00 0.03 0.01 89 1022.5
20240528163919 57 180 0.0 0.0 0.00 0.03 0.01 89 1022.5
20240528161820 57 180 0.0 0.0 0.00 0.03 0.01 87 1022.7
20240528160819 58 180 0.0 0.0 0.00 0.03 0.01 85 1022.8
20240528160735 58 180 0.0 0.0 0.00 0.03 0.01 85 1022.8
20240528160621 58 177 0.0 0.0 0.00 0.03 0.01 84 1022.8
20240528155718 59 180 0.0 0.0 0.00 0.03 0.01 81 1022.9
20240528155622 59 180 0.0 0.0 0.00 0.03 0.01 81 1022.9
20240528155519 59 180 0.0 0.0 0.00 0.03 0.01 81 1022.9
20240528155419 59 180 0.0 0.0 0.00 0.03 0.01 81 1022.9
20240528153520 60 180 0.0 0.0 0.00 0.03 0.01 76 1022.9
20240528152519 61 180 0.0 0.0 0.00 0.03 0.01 70 1022.8
20240528152420 62 180 0.0 0.0 0.00 0.03 0.01 70 1022.8
20240528150120 65 180 0.0 0.0 0.00 0.03 0.01 57 1022.4
20240528150018 65 180 0.0 0.0 0.00 0.03 0.01 57 1022.4
20240528145020 67 180 0.0 0.0 0.00 0.03 0.01 55 1022.4
20240528143021 69 176 0.0 0.0 0.00 0.03 0.01 53 1022.6
20240528142923 69 180 0.0 0.0 0.00 0.03 0.01 53 1022.6
20240528142019 68 183 0.0 0.0 0.00 0.03 0.01 54 1022.7
20240528141921 68 214 0.0 0.0 0.00 0.03 0.01 54 1022.7
20240528141820 68 210 0.0 0.0 0.00 0.03 0.01 54 1022.8
20240528140919 69 220 0.0 0.0 0.00 0.03 0.01 53 1022.9
20240528135928 71 208 0.0 0.0 0.00 0.03 0.01 51 1022.9
20240528135819 71 189 0.0 0.0 0.00 0.03 0.01 51 1022.9
20240528134822 69 224 0.0 0.0 0.00 0.03 0.01 55 1023.0
20240528133919 68 196 0.0 0.0 0.00 0.03 0.01 54 1023.1
20240528133822 68 206 0.0 0.0 0.00 0.03 0.01 54 1023.0
20240528132919 67 180 0.0 0.0 0.00 0.03 0.01 56 1023.2
20240528131821 67 180 0.0 0.0 0.00 0.03 0.01 55 1023.3
20240528130920 68 180 0.0 0.0 0.00 0.03 0.01 54 1023.5
20240528124921 69 180 0.0 0.0 0.00 0.03 0.01 54 1023.6
20240528124821 69 180 0.0 0.0 0.00 0.03 0.01 54 1023.6
20240528123919 68 180 0.0 0.0 0.00 0.03 0.01 55 1023.7
20240528122920 68 180 0.0 0.0 0.00 0.03 0.01 55 1023.6
20240528121921 69 178 0.0 0.0 0.00 0.03 0.01 54 1023.8
20240528120819 69 180 0.0 0.0 0.00 0.03 0.01 55 1024.0
20240528120720 69 180 0.0 0.0 0.00 0.03 0.01 55 1024.1
20240528120618 69 180 0.0 0.0 0.00 0.03 0.01 55 1024.2
20240528114718 68 180 0.0 0.0 0.00 0.03 0.01 57 1024.2
20240528113719 67 180 0.0 0.0 0.00 0.03 0.01 59 1024.3
20240528113521 67 180 0.0 0.0 0.00 0.03 0.01 59 1024.3
20240528112520 64 180 0.0 0.0 0.00 0.03 0.01 61 1024.4
20240528112419 64 180 0.0 0.0 0.00 0.03 0.01 61 1024.5
20240528110121 63 180 0.0 0.0 0.00 0.03 0.01 62 1024.7
20240528105219 63 180 0.0 0.0 0.00 0.03 0.01 63 1024.9
20240528105020 63 180 0.0 0.0 0.00 0.03 0.01 64 1024.9
20240528104919 63 180 0.0 0.0 0.00 0.03 0.01 64 1024.9
20240528104018 62 180 0.0 0.0 0.00 0.03 0.01 64 1024.9
20240528103020 63 180 0.0 0.0 0.00 0.03 0.01 62 1025.0
20240528102118 64 180 0.0 0.0 0.00 0.03 0.01 62 1025.1
20240528101218 64 180 0.0 0.0 0.00 0.03 0.01 64 1025.1
20240528101118 64 180 0.0 0.0 0.00 0.03 0.01 64 1025.1
20240528100934 63 180 0.0 0.0 0.00 0.03 0.01 64 1025.1
20240528100720 63 180 0.0 0.0 0.00 0.03 0.01 63 1025.1
20240528100420 64 180 0.0 0.0 0.00 0.03 0.01 64 1025.3
20240528100219 64 180 0.0 0.0 0.00 0.03 0.01 64 1025.3
20240528095220 64 180 0.0 0.0 0.00 0.04 0.01 66 1025.3
20240528094319 63 180 0.0 0.0 0.00 0.04 0.01 68 1025.3
20240528092221 60 180 0.0 0.0 0.00 0.04 0.01 72 1025.6
20240528091219 60 180 0.0 0.0 0.00 0.04 0.01 71 1025.6
20240528090220 62 180 0.0 0.0 0.00 0.04 0.01 70 1025.6
20240528085318 61 180 0.0 0.0 0.00 0.05 0.01 73 1025.4
20240528085219 61 180 0.0 0.0 0.00 0.05 0.01 73 1025.4
20240528084222 60 180 0.0 0.0 0.00 0.05 0.01 73 1025.5
20240528082220 62 180 0.0 0.0 0.00 0.05 0.01 75 1025.4
20240528081220 61 180 0.0 0.0 0.00 0.05 0.01 76 1025.4
20240528075318 58 180 0.0 0.0 0.00 0.05 0.01 82 1025.4
20240528075219 58 180 0.0 0.0 0.00 0.05 0.01 82 1025.6
20240528074118 58 180 0.0 0.0 0.00 0.05 0.01 82 1025.6
20240528073120 59 180 0.0 0.0 0.00 0.05 0.01 84 1025.4
20240528071120 56 180 0.0 0.0 0.00 0.06 0.01 89 1025.5
20240528065219 56 180 0.0 0.0 0.00 0.07 0.01 91 1025.6
20240528065121 56 180 0.0 0.0 0.00 0.07 0.01 92 1025.5
20240528064118 55 180 0.0 0.0 0.00 0.07 0.01 94 1025.5
20240528064019 55 180 0.0 0.0 0.00 0.07 0.01 94 1025.5
20240528063019 54 180 0.0 0.0 0.00 0.07 0.01 95 1025.6
20240528062918 54 180 0.0 0.0 0.00 0.07 0.01 95 1025.6
20240528062821 54 180 0.0 0.0 0.00 0.07 0.01 95 1025.5
20240528061819 53 180 0.0 0.0 0.00 0.07 0.01 97 1025.4
20240528060818 51 180 0.0 0.0 0.00 0.07 0.01 98 1025.3
20240528060719 51 180 0.0 0.0 0.00 0.07 0.01 98 1025.3
20240528055619 51 180 0.0 0.0 0.00 0.07 0.01 98 1025.3
20240528055419 50 180 0.0 0.0 0.00 0.07 0.01 98 1025.1
20240528055319 50 180 0.0 0.0 0.00 0.07 0.01 98 1025.2